| time (UTC) | temp C | wind direction | speed KPH | gust KPH | rain 1hr cm | rain 24hr cm | rain mn cm | humidity % | barometer mb |
| 20260507161810 | 27 | 64 | 11.3 | 27.4 | 0.00 | 0.03 | 0.00 | 92 | 1007.4 |
| 20260507161303 | 27 | 16 | 9.7 | 27.4 | 0.00 | 0.03 | 0.00 | 91 | 1007.3 |
| 20260507160758 | 27 | 39 | 9.7 | 17.7 | 0.00 | 0.03 | 0.00 | 92 | 1007.3 |
| 20260507160517 | 27 | 10 | 9.7 | 17.7 | 0.00 | 0.03 | 0.00 | 92 | 1007.4 |
| 20260507155745 | 27 | 50 | 6.4 | 17.7 | 0.00 | 0.03 | 0.03 | 92 | 1007.4 |
| 20260507155241 | 27 | 45 | 6.4 | 19.3 | 0.00 | 0.03 | 0.03 | 92 | 1007.4 |
| 20260507154733 | 27 | 64 | 8.0 | 19.3 | 0.00 | 0.03 | 0.03 | 91 | 1007.5 |
| 20260507154456 | 27 | 53 | 9.7 | 20.9 | 0.00 | 0.03 | 0.03 | 91 | 1007.4 |
| 20260507153721 | 27 | 60 | 9.7 | 20.9 | 0.00 | 0.03 | 0.03 | 91 | 1007.5 |
| 20260507153215 | 27 | 70 | 8.0 | 17.7 | 0.00 | 0.03 | 0.03 | 91 | 1007.5 |
| 20260507152709 | 27 | 68 | 8.0 | 17.7 | 0.00 | 0.03 | 0.03 | 91 | 1007.5 |
| 20260507152203 | 27 | 65 | 8.0 | 17.7 | 0.00 | 0.03 | 0.03 | 91 | 1007.6 |
| 20260507151922 | 27 | 78 | 8.0 | 22.5 | 0.00 | 0.03 | 0.03 | 91 | 1007.6 |
| 20260507151151 | 27 | 70 | 8.0 | 22.5 | 0.00 | 0.03 | 0.03 | 91 | 1007.7 |
| 20260507150646 | 27 | 66 | 8.0 | 19.3 | 0.00 | 0.03 | 0.03 | 91 | 1007.7 |
| 20260507150140 | 27 | 26 | 8.0 | 17.7 | 0.00 | 0.03 | 0.03 | 91 | 1007.8 |
| 20260507145633 | 27 | 31 | 8.0 | 16.1 | 0.00 | 0.03 | 0.03 | 91 | 1007.7 |
| 20260507145127 | 27 | 45 | 6.4 | 14.5 | 0.00 | 0.03 | 0.03 | 92 | 1007.8 |
| 20260507144621 | 27 | 58 | 4.8 | 12.9 | 0.00 | 0.03 | 0.03 | 92 | 1007.9 |
| 20260507144342 | 27 | 57 | 4.8 | 11.3 | 0.00 | 0.03 | 0.03 | 92 | 1007.9 |
| 20260507143611 | 27 | 71 | 4.8 | 11.3 | 0.00 | 0.03 | 0.03 | 92 | 1008.0 |
| 20260507143335 | 27 | 64 | 3.2 | 9.7 | 0.00 | 0.03 | 0.03 | 92 | 1008.0 |
| 20260507142557 | 27 | 14 | 3.2 | 8.0 | 0.00 | 0.03 | 0.03 | 91 | 1008.0 |
| 20260507142051 | 27 | 95 | 1.6 | 8.0 | 0.00 | 0.03 | 0.03 | 92 | 1007.9 |
| 20260507141548 | 27 | 154 | 0.0 | 0.0 | 0.00 | 0.03 | 0.03 | 92 | 1007.8 |
| 20260507141038 | 27 | 156 | 0.0 | 1.6 | 0.00 | 0.03 | 0.03 | 92 | 1007.9 |
| 20260507140533 | 27 | 156 | 1.6 | 4.8 | 0.00 | 0.03 | 0.03 | 91 | 1007.8 |
| 20260507140027 | 27 | 156 | 1.6 | 4.8 | 0.00 | 0.03 | 0.03 | 92 | 1007.8 |
| 20260507135522 | 27 | 64 | 0.0 | 3.2 | 0.00 | 0.03 | 0.03 | 92 | 1007.8 |
| 20260507135015 | 27 | 63 | 1.6 | 4.8 | 0.00 | 0.03 | 0.03 | 92 | 1007.8 |
| 20260507134510 | 26 | 112 | 1.6 | 4.8 | 0.00 | 0.03 | 0.03 | 92 | 1007.8 |
| 20260507134003 | 26 | 109 | 0.0 | 3.2 | 0.00 | 0.03 | 0.03 | 92 | 1007.8 |
| 20260507133457 | 26 | 107 | 0.0 | 1.6 | 0.00 | 0.03 | 0.03 | 92 | 1007.9 |
| 20260507133217 | 26 | 110 | 0.0 | 3.2 | 0.00 | 0.03 | 0.03 | 92 | 1007.8 |
| 20260507132445 | 26 | 106 | 1.6 | 8.0 | 0.00 | 0.03 | 0.03 | 92 | 1007.7 |
| 20260507131939 | 26 | 40 | 3.2 | 8.0 | 0.00 | 0.03 | 0.03 | 92 | 1007.7 |
| 20260507131649 | 26 | 158 | 3.2 | 8.0 | 0.00 | 0.03 | 0.03 | 92 | 1007.6 |
| 20260507130927 | 26 | 152 | 1.6 | 8.0 | 0.00 | 0.03 | 0.03 | 92 | 1007.7 |
| 20260507130651 | 26 | 163 | 0.0 | 6.4 | 0.00 | 0.03 | 0.03 | 91 | 1007.5 |
| 20260507130144 | 27 | 173 | 0.0 | 4.8 | 0.00 | 0.03 | 0.03 | 91 | 1007.5 |
| 20260507125650 | 27 | 217 | 0.0 | 4.8 | 0.00 | 0.03 | 0.03 | 91 | 1007.5 |
| 20260507125151 | 27 | 237 | 0.0 | 4.8 | 0.00 | 0.03 | 0.03 | 91 | 1007.5 |
| 20260507124643 | 27 | 256 | 0.0 | 3.2 | 0.00 | 0.03 | 0.03 | 90 | 1007.5 |
| 20260507123923 | 27 | 260 | 0.0 | 3.2 | 0.00 | 0.03 | 0.03 | 90 | 1007.5 |
| 20260507123423 | 27 | 49 | 0.0 | 4.8 | 0.00 | 0.03 | 0.03 | 90 | 1007.5 |
| 20260507123147 | 27 | 50 | 0.0 | 4.8 | 0.00 | 0.03 | 0.03 | 90 | 1007.4 |
| 20260507122423 | 27 | 69 | 0.0 | 0.0 | 0.00 | 0.03 | 0.03 | 90 | 1007.3 |
| 20260507121923 | 27 | 66 | 1.6 | 4.8 | 0.00 | 0.03 | 0.03 | 90 | 1007.2 |
| 20260507121424 | 27 | 66 | 1.6 | 6.4 | 0.00 | 0.03 | 0.03 | 90 | 1007.2 |
| 20260507120923 | 27 | 70 | 1.6 | 6.4 | 0.00 | 0.03 | 0.03 | 90 | 1007.2 |
| 20260507120422 | 27 | 52 | 0.0 | 4.8 | 0.00 | 0.03 | 0.03 | 90 | 1007.2 |
| 20260507115922 | 27 | 68 | 1.6 | 6.4 | 0.00 | 0.03 | 0.03 | 90 | 1007.2 |
| 20260507115423 | 27 | 56 | 3.2 | 8.0 | 0.00 | 0.03 | 0.03 | 90 | 1007.2 |
| 20260507114921 | 27 | 30 | 3.2 | 8.0 | 0.00 | 0.03 | 0.03 | 90 | 1007.1 |
| 20260507114423 | 27 | 19 | 3.2 | 8.0 | 0.00 | 0.03 | 0.03 | 90 | 1007.1 |
| 20260507113921 | 27 | 34 | 4.8 | 11.3 | 0.00 | 0.03 | 0.03 | 90 | 1007.0 |
| 20260507113421 | 27 | 27 | 4.8 | 11.3 | 0.00 | 0.03 | 0.03 | 90 | 1007.0 |
| 20260507112921 | 27 | 4 | 4.8 | 12.9 | 0.00 | 0.03 | 0.03 | 90 | 1007.0 |
| 20260507112421 | 27 | 36 | 4.8 | 12.9 | 0.00 | 0.03 | 0.03 | 90 | 1007.0 |
| 20260507111921 | 27 | 10 | 6.4 | 16.1 | 0.00 | 0.03 | 0.03 | 90 | 1006.9 |
| 20260507111641 | 27 | 18 | 6.4 | 16.1 | 0.00 | 0.03 | 0.03 | 90 | 1006.9 |
| 20260507110921 | 27 | 359 | 4.8 | 12.9 | 0.00 | 0.03 | 0.03 | 90 | 1006.9 |
| 20260507110417 | 27 | 16 | 4.8 | 12.9 | 0.00 | 0.03 | 0.03 | 90 | 1006.9 |
| 20260507105917 | 27 | 20 | 4.8 | 12.9 | 0.00 | 0.03 | 0.03 | 90 | 1006.8 |
| 20260507105416 | 27 | 35 | 4.8 | 16.1 | 0.00 | 0.03 | 0.03 | 89 | 1006.8 |
| 20260507105146 | 27 | 41 | 6.4 | 16.1 | 0.00 | 0.03 | 0.03 | 90 | 1006.8 |
| 20260507104417 | 27 | 50 | 6.4 | 14.5 | 0.00 | 0.03 | 0.03 | 90 | 1006.8 |
| 20260507103922 | 27 | 54 | 6.4 | 16.1 | 0.00 | 0.03 | 0.03 | 90 | 1006.8 |
| 20260507103422 | 27 | 64 | 6.4 | 16.1 | 0.00 | 0.03 | 0.03 | 90 | 1006.8 |
| 20260507102923 | 27 | 25 | 8.0 | 16.1 | 0.00 | 0.03 | 0.03 | 90 | 1006.8 |
| 20260507102423 | 27 | 51 | 8.0 | 16.1 | 0.00 | 0.03 | 0.03 | 90 | 1006.7 |
| 20260507101916 | 27 | 42 | 8.0 | 17.7 | 0.00 | 0.03 | 0.03 | 90 | 1006.7 |
| 20260507101900 | 27 | 74 | 8.0 | 17.7 | 0.00 | 0.03 | 0.03 | 90 | 1006.4 |
| 20260507100904 | 27 | 19 | 8.0 | 16.1 | 0.00 | 0.03 | 0.03 | 90 | 1006.4 |
| 20260507100618 | 27 | 340 | 6.4 | 16.1 | 0.00 | 0.03 | 0.03 | 90 | 1006.4 |
| 20260507095856 | 27 | 44 | 6.4 | 14.5 | 0.00 | 0.03 | 0.03 | 89 | 1006.4 |
| 20260507095346 | 27 | 8 | 8.0 | 16.1 | 0.00 | 0.03 | 0.03 | 89 | 1006.4 |
| 20260507095105 | 27 | 86 | 6.4 | 17.7 | 0.00 | 0.03 | 0.03 | 89 | 1006.3 |
| 20260507094334 | 28 | 27 | 6.4 | 17.7 | 0.00 | 0.03 | 0.03 | 89 | 1006.2 |
| 20260507093827 | 28 | 349 | 4.8 | 12.9 | 0.00 | 0.03 | 0.03 | 89 | 1006.2 |
| 20260507093547 | 28 | 43 | 6.4 | 14.5 | 0.00 | 0.03 | 0.03 | 88 | 1006.2 |
| 20260507092816 | 28 | 23 | 8.0 | 16.1 | 0.00 | 0.03 | 0.03 | 88 | 1006.0 |
| 20260507092309 | 28 | 17 | 8.0 | 16.1 | 0.00 | 0.03 | 0.03 | 87 | 1005.8 |
| 20260507091807 | 28 | 9 | 8.0 | 16.1 | 0.00 | 0.03 | 0.03 | 87 | 1005.8 |
| 20260507091257 | 28 | 38 | 9.7 | 17.7 | 0.00 | 0.03 | 0.03 | 87 | 1005.9 |
| 20260507091011 | 28 | 41 | 9.7 | 20.9 | 0.00 | 0.03 | 0.03 | 87 | 1005.8 |
| 20260507090245 | 28 | 37 | 9.7 | 20.9 | 0.00 | 0.03 | 0.03 | 87 | 1005.7 |
| 20260507085739 | 28 | 26 | 8.0 | 17.7 | 0.00 | 0.03 | 0.03 | 87 | 1005.7 |
| 20260507085234 | 28 | 14 | 8.0 | 20.9 | 0.00 | 0.03 | 0.03 | 86 | 1005.7 |
| 20260507084728 | 28 | 30 | 9.7 | 20.9 | 0.00 | 0.03 | 0.03 | 86 | 1005.5 |
| 20260507084221 | 28 | 23 | 11.3 | 22.5 | 0.00 | 0.03 | 0.03 | 86 | 1005.5 |
| 20260507083944 | 28 | 31 | 11.3 | 22.5 | 0.00 | 0.03 | 0.03 | 85 | 1005.4 |
| 20260507083209 | 28 | 359 | 9.7 | 19.3 | 0.00 | 0.03 | 0.03 | 86 | 1005.5 |
| 20260507082926 | 28 | 27 | 8.0 | 17.7 | 0.00 | 0.03 | 0.03 | 86 | 1005.4 |
| 20260507082157 | 29 | 54 | 6.4 | 17.7 | 0.00 | 0.03 | 0.03 | 86 | 1005.4 |
| 20260507081651 | 28 | 359 | 9.7 | 16.1 | 0.00 | 0.03 | 0.03 | 87 | 1005.4 |
| 20260507081145 | 28 | 340 | 9.7 | 22.5 | 0.00 | 0.03 | 0.03 | 87 | 1005.4 |
| 20260507080859 | 28 | 24 | 8.0 | 17.7 | 0.00 | 0.03 | 0.03 | 87 | 1005.4 |
| 20260507080133 | 28 | 43 | 11.3 | 22.5 | 0.00 | 0.03 | 0.03 | 87 | 1005.4 |
| 20260507075628 | 28 | 30 | 11.3 | 22.5 | 0.00 | 0.03 | 0.03 | 86 | 1005.4 |
| 20260507075127 | 28 | 12 | 11.3 | 22.5 | 0.00 | 0.03 | 0.03 | 87 | 1005.4 |
| 20260507074618 | 28 | 52 | 12.9 | 22.5 | 0.00 | 0.03 | 0.03 | 87 | 1005.5 |
| 20260507074110 | 28 | 59 | 12.9 | 22.5 | 0.00 | 0.03 | 0.03 | 86 | 1005.6 |
| 20260507073604 | 28 | 33 | 12.9 | 20.9 | 0.00 | 0.03 | 0.03 | 87 | 1005.6 |
| 20260507073058 | 28 | 341 | 14.5 | 22.5 | 0.00 | 0.03 | 0.03 | 86 | 1005.6 |
| 20260507072552 | 29 | 30 | 11.3 | 22.5 | 0.00 | 0.03 | 0.03 | 84 | 1005.5 |
| 20260507072047 | 29 | 31 | 9.7 | 20.9 | 0.00 | 0.03 | 0.03 | 84 | 1005.4 |
| 20260507071805 | 29 | 73 | 11.3 | 20.9 | 0.00 | 0.03 | 0.03 | 84 | 1005.5 |
| 20260507071034 | 29 | 345 | 11.3 | 19.3 | 0.00 | 0.03 | 0.03 | 84 | 1005.5 |
| 20260507070528 | 29 | 14 | 11.3 | 20.9 | 0.00 | 0.03 | 0.03 | 84 | 1005.6 |
| 20260507070023 | 29 | 29 | 9.7 | 22.5 | 0.00 | 0.03 | 0.03 | 83 | 1005.6 |
| 20260507065516 | 29 | 29 | 11.3 | 22.5 | 0.00 | 0.03 | 0.03 | 86 | 1005.5 |
| 20260507065010 | 29 | 79 | 8.0 | 22.5 | 0.00 | 0.03 | 0.03 | 85 | 1005.5 |
| 20260507064723 | 29 | 11 | 6.4 | 16.1 | 0.00 | 0.03 | 0.03 | 85 | 1005.5 |
| 20260507063957 | 29 | 4 | 9.7 | 19.3 | 0.00 | 0.03 | 0.03 | 85 | 1005.4 |
| 20260507063452 | 28 | 326 | 9.7 | 19.3 | 0.00 | 0.03 | 0.03 | 85 | 1005.4 |
| 20260507063209 | 29 | 35 | 9.7 | 22.5 | 0.00 | 0.03 | 0.03 | 85 | 1005.5 |
| 20260507062440 | 28 | 31 | 11.3 | 22.5 | 0.00 | 0.03 | 0.03 | 86 | 1005.5 |
| 20260507062203 | 28 | 359 | 9.7 | 19.3 | 0.00 | 0.03 | 0.03 | 86 | 1005.6 |
| 20260507061430 | 28 | 44 | 11.3 | 19.3 | 0.00 | 0.03 | 0.03 | 86 | 1005.7 |
| 20260507060922 | 28 | 333 | 12.9 | 20.9 | 0.00 | 0.03 | 0.03 | 86 | 1005.7 |
| 20260507060416 | 28 | 35 | 14.5 | 27.4 | 0.00 | 0.03 | 0.03 | 87 | 1005.8 |
| 20260507055910 | 28 | 348 | 14.5 | 27.4 | 0.00 | 0.03 | 0.03 | 86 | 1005.8 |
| 20260507055404 | 28 | 359 | 14.5 | 25.7 | 0.00 | 0.03 | 0.03 | 85 | 1005.8 |
| 20260507054857 | 28 | 359 | 16.1 | 25.7 | 0.00 | 0.03 | 0.03 | 86 | 1005.9 |
| 20260507054354 | 28 | 359 | 16.1 | 27.4 | 0.00 | 0.03 | 0.03 | 85 | 1006.0 |
| 20260507053845 | 29 | 29 | 14.5 | 27.4 | 0.00 | 0.03 | 0.03 | 84 | 1006.0 |
| 20260507053340 | 29 | 336 | 14.5 | 27.4 | 0.00 | 0.03 | 0.03 | 85 | 1006.3 |
| 20260507052839 | 29 | 12 | 12.9 | 27.4 | 0.00 | 0.03 | 0.03 | 85 | 1006.4 |
| 20260507052327 | 29 | 4 | 14.5 | 24.1 | 0.00 | 0.03 | 0.03 | 84 | 1006.5 |
| 20260507051821 | 29 | 56 | 12.9 | 22.5 | 0.00 | 0.03 | 0.03 | 84 | 1006.5 |
| 20260507051316 | 29 | 32 | 11.3 | 22.5 | 0.00 | 0.03 | 0.03 | 84 | 1006.5 |
| 20260507050810 | 29 | 345 | 12.9 | 24.1 | 0.00 | 0.03 | 0.03 | 85 | 1006.5 |
| 20260507050304 | 28 | 37 | 14.5 | 27.4 | 0.00 | 0.03 | 0.03 | 85 | 1006.7 |
| 20260507045758 | 28 | 349 | 12.9 | 27.4 | 0.00 | 0.03 | 0.03 | 86 | 1006.8 |
| 20260507045252 | 28 | 40 | 14.5 | 25.7 | 0.00 | 0.03 | 0.03 | 85 | 1007.0 |
| 20260507044750 | 29 | 337 | 12.9 | 24.1 | 0.00 | 0.03 | 0.03 | 85 | 1007.0 |
| 20260507044250 | 29 | 50 | 9.7 | 24.1 | 0.00 | 0.03 | 0.03 | 84 | 1007.2 |
| 20260507043751 | 29 | 331 | 11.3 | 20.9 | 0.00 | 0.03 | 0.03 | 85 | 1007.1 |
| 20260507043248 | 29 | 48 | 11.3 | 20.9 | 0.00 | 0.03 | 0.03 | 85 | 1007.1 |
| 20260507042748 | 29 | 50 | 11.3 | 20.9 | 0.00 | 0.03 | 0.03 | 85 | 1007.3 |
| 20260507042249 | 29 | 350 | 11.3 | 22.5 | 0.00 | 0.03 | 0.03 | 84 | 1007.3 |
| 20260507041746 | 29 | 359 | 8.0 | 22.5 | 0.00 | 0.03 | 0.03 | 83 | 1007.3 |
| 20260507041503 | 29 | 25 | 8.0 | 19.3 | 0.00 | 0.03 | 0.03 | 85 | 1007.5 |
| 20260507040746 | 29 | 39 | 9.7 | 19.3 | 0.00 | 0.03 | 0.03 | 82 | 1007.6 |
| 20260507040257 | 28 | 59 | 11.3 | 22.5 | 0.00 | 0.03 | 0.03 | 84 | 1007.7 |
| 20260507040246 | 29 | 339 | 9.7 | 19.3 | 0.00 | 0.03 | 0.03 | 84 | 1007.7 |
| 20260507035246 | 28 | 359 | 9.7 | 24.1 | 0.00 | 0.03 | 0.03 | 85 | 1007.7 |
| 20260507034746 | 28 | 14 | 11.3 | 24.1 | 0.00 | 0.03 | 0.03 | 85 | 1007.9 |
| 20260507034242 | 28 | 334 | 9.7 | 20.9 | 0.00 | 0.03 | 0.03 | 85 | 1008.0 |
| 20260507033742 | 28 | 359 | 11.3 | 20.9 | 0.00 | 0.03 | 0.03 | 86 | 1008.1 |
| 20260507033242 | 28 | 27 | 9.7 | 20.9 | 0.00 | 0.03 | 0.03 | 85 | 1007.9 |
| 20260507032742 | 28 | 27 | 8.0 | 20.9 | 0.00 | 0.03 | 0.03 | 86 | 1008.0 |
| 20260507032503 | 28 | 37 | 9.7 | 20.9 | 0.00 | 0.03 | 0.03 | 85 | 1008.0 |
| 20260507031742 | 29 | 350 | 11.3 | 22.5 | 0.00 | 0.03 | 0.03 | 85 | 1008.1 |
| 20260507031511 | 28 | 347 | 11.3 | 22.5 | 0.00 | 0.03 | 0.03 | 85 | 1008.2 |
| 20260507030744 | 28 | 339 | 11.3 | 22.5 | 0.00 | 0.03 | 0.03 | 86 | 1008.1 |
| 20260507030242 | 28 | 13 | 12.9 | 24.1 | 0.00 | 0.03 | 0.03 | 86 | 1008.1 |
| 20260507025742 | 28 | 11 | 12.9 | 24.1 | 0.00 | 0.03 | 0.03 | 87 | 1008.2 |
| 20260507025242 | 28 | 359 | 12.9 | 24.1 | 0.00 | 0.03 | 0.03 | 86 | 1008.3 |
| 20260507024742 | 28 | 8 | 11.3 | 24.1 | 0.00 | 0.03 | 0.03 | 85 | 1008.3 |
| 20260507024242 | 28 | 48 | 9.7 | 22.5 | 0.00 | 0.03 | 0.03 | 86 | 1008.2 |
| 20260507023742 | 28 | 71 | 11.3 | 22.5 | 0.00 | 0.03 | 0.03 | 85 | 1008.1 |
| 20260507023242 | 28 | 60 | 12.9 | 24.1 | 0.00 | 0.03 | 0.03 | 85 | 1008.1 |
| 20260507022748 | 28 | 32 | 14.5 | 25.7 | 0.00 | 0.03 | 0.03 | 86 | 1008.1 |
| 20260507022511 | 28 | 354 | 12.9 | 25.7 | 0.00 | 0.03 | 0.03 | 86 | 1008.1 |
| 20260507021746 | 28 | 14 | 12.9 | 22.5 | 0.00 | 0.03 | 0.03 | 86 | 1008.2 |
| 20260507021241 | 28 | 27 | 11.3 | 24.1 | 0.00 | 0.03 | 0.03 | 85 | 1008.3 |
| 20260507020734 | 28 | 27 | 9.7 | 24.1 | 0.00 | 0.03 | 0.03 | 86 | 1008.3 |
| 20260507020456 | 28 | 15 | 11.3 | 22.5 | 0.00 | 0.03 | 0.03 | 88 | 1008.3 |
| 20260507015722 | 28 | 359 | 12.9 | 22.5 | 0.00 | 0.03 | 0.03 | 87 | 1008.4 |
| 20260507015216 | 28 | 359 | 11.3 | 25.7 | 0.00 | 0.03 | 0.03 | 87 | 1008.5 |
| 20260507014710 | 28 | 354 | 11.3 | 25.7 | 0.00 | 0.03 | 0.03 | 87 | 1008.5 |
| 20260507014422 | 28 | 340 | 9.7 | 20.9 | 0.00 | 0.03 | 0.03 | 85 | 1008.6 |
| 20260507013659 | 28 | 359 | 9.7 | 20.9 | 0.00 | 0.03 | 0.03 | 87 | 1008.5 |
| 20260507013152 | 28 | 359 | 11.3 | 20.9 | 0.00 | 0.03 | 0.03 | 86 | 1008.5 |
| 20260507012649 | 28 | 39 | 11.3 | 22.5 | 0.00 | 0.03 | 0.03 | 86 | 1008.4 |
| 20260507012140 | 28 | 19 | 11.3 | 22.5 | 0.00 | 0.03 | 0.03 | 86 | 1008.5 |
| 20260507011635 | 28 | 49 | 11.3 | 22.5 | 0.00 | 0.03 | 0.03 | 87 | 1008.5 |
| 20260507011129 | 27 | 359 | 11.3 | 22.5 | 0.00 | 0.03 | 0.03 | 87 | 1008.6 |
| 20260507010622 | 27 | 85 | 6.4 | 19.3 | 0.00 | 0.03 | 0.03 | 88 | 1008.6 |
| 20260507010343 | 27 | 8 | 3.2 | 8.0 | 0.00 | 0.03 | 0.03 | 89 | 1008.7 |
| 20260507005611 | 27 | 112 | 3.2 | 6.4 | 0.00 | 0.03 | 0.03 | 90 | 1008.7 |
| 20260507005105 | 27 | 152 | 1.6 | 6.4 | 0.03 | 0.03 | 0.03 | 90 | 1008.7 |
| 20260507004559 | 27 | 225 | 1.6 | 6.4 | 0.03 | 0.03 | 0.03 | 90 | 1008.7 |
| 20260507004538 | 27 | 163 | 1.6 | 6.4 | 0.03 | 0.03 | 0.03 | 90 | 1008.8 |
| 20260507003546 | 27 | 166 | 1.6 | 4.8 | 0.03 | 0.03 | 0.03 | 90 | 1008.8 |
| 20260507003040 | 27 | 163 | 0.0 | 4.8 | 0.03 | 0.03 | 0.03 | 90 | 1008.8 |
| 20260507002534 | 27 | 164 | 0.0 | 4.8 | 0.03 | 0.03 | 0.03 | 90 | 1008.9 |
| 20260507002028 | 27 | 166 | 0.0 | 4.8 | 0.03 | 0.03 | 0.03 | 90 | 1008.8 |
| 20260507001522 | 27 | 164 | 0.0 | 4.8 | 0.03 | 0.03 | 0.03 | 91 | 1008.9 |
| 20260507001017 | 26 | 163 | 0.0 | 3.2 | 0.03 | 0.03 | 0.03 | 92 | 1008.8 |
| 20260507000511 | 26 | 164 | 0.0 | 3.2 | 0.03 | 0.03 | 0.03 | 92 | 1008.8 |
| 20260507000005 | 26 | 359 | 0.0 | 3.2 | 0.03 | 0.03 | 0.03 | 92 | 1008.8 |
| 20260506235718 | 26 | 164 | 1.6 | 4.8 | 0.03 | 0.03 | 0.03 | 92 | 1008.8 |
| 20260506234952 | 26 | 359 | 1.6 | 4.8 | 0.00 | 0.00 | 0.00 | 91 | 1008.9 |
| 20260506234447 | 26 | 359 | 1.6 | 6.4 | 0.00 | 0.00 | 0.00 | 91 | 1008.8 |
| 20260506233943 | 26 | 247 | 1.6 | 6.4 | 0.00 | 0.00 | 0.00 | 91 | 1008.6 |
| 20260506233435 | 25 | 222 | 3.2 | 6.4 | 0.00 | 0.00 | 0.00 | 91 | 1008.6 |
| 20260506232929 | 25 | 224 | 3.2 | 6.4 | 0.00 | 0.00 | 0.00 | 91 | 1008.4 |
| 20260506232913 | 25 | 225 | 3.2 | 6.4 | 0.00 | 0.00 | 0.00 | 91 | 1008.4 |
| 20260506231917 | 25 | 244 | 4.8 | 6.4 | 0.00 | 0.00 | 0.00 | 91 | 1008.4 |
| 20260506231411 | 25 | 216 | 4.8 | 6.4 | 0.00 | 0.00 | 0.00 | 90 | 1008.4 |
| 20260506230905 | 25 | 232 | 4.8 | 8.0 | 0.00 | 0.00 | 0.00 | 90 | 1008.3 |
| 20260506230359 | 25 | 228 | 3.2 | 8.0 | 0.00 | 0.00 | 0.00 | 90 | 1008.2 |
| 20260506225853 | 25 | 235 | 1.6 | 4.8 | 0.00 | 0.00 | 0.00 | 90 | 1008.1 |
| 20260506225839 | 25 | 227 | 1.6 | 4.8 | 0.00 | 0.00 | 0.00 | 90 | 1008.0 |
| 20260506225112 | 25 | 228 | 1.6 | 4.8 | 0.00 | 0.00 | 0.00 | 89 | 1008.1 |
| 20260506224335 | 26 | 252 | 0.0 | 3.2 | 0.00 | 0.00 | 0.00 | 90 | 1008.0 |
| 20260506223828 | 25 | 90 | 0.0 | 0.0 | 0.00 | 0.00 | 0.00 | 90 | 1008.1 |
| 20260506223323 | 25 | 91 | 0.0 | 0.0 | 0.00 | 0.00 | 0.00 | 89 | 1008.1 |
| 20260506223039 | 25 | 89 | 0.0 | 0.0 | 0.00 | 0.00 | 0.00 | 89 | 1008.0 |
| 20260506222311 | 25 | 94 | 0.0 | 1.6 | 0.00 | 0.00 | 0.00 | 89 | 1007.9 |
| 20260506221804 | 25 | 91 | 1.6 | 4.8 | 0.00 | 0.00 | 0.00 | 89 | 1007.9 |
| 20260506221521 | 25 | 93 | 3.2 | 4.8 | 0.00 | 0.00 | 0.00 | 89 | 1007.9 |
| 20260506220753 | 25 | 85 | 1.6 | 4.8 | 0.00 | 0.00 | 0.00 | 88 | 1007.8 |
| 20260506220248 | 25 | 103 | 0.0 | 0.0 | 0.00 | 0.00 | 0.00 | 88 | 1007.8 |
| 20260506220225 | 25 | 102 | 0.0 | 1.6 | 0.00 | 0.00 | 0.00 | 88 | 1007.7 |
| 20260506215234 | 25 | 104 | 0.0 | 3.2 | 0.00 | 0.00 | 0.00 | 89 | 1007.5 |
| 20260506214729 | 25 | 104 | 0.0 | 3.2 | 0.00 | 0.00 | 0.00 | 89 | 1007.5 |
| 20260506214223 | 25 | 181 | 0.0 | 4.8 | 0.00 | 0.00 | 0.00 | 89 | 1007.4 |
| 20260506213718 | 25 | 180 | 1.6 | 6.4 | 0.00 | 0.00 | 0.00 | 89 | 1007.5 |
| 20260506213211 | 25 | 164 | 1.6 | 6.4 | 0.00 | 0.00 | 0.00 | 88 | 1007.3 |
| 20260506212920 | 25 | 255 | 4.8 | 8.0 | 0.00 | 0.00 | 0.00 | 88 | 1007.4 |
| 20260506212415 | 25 | 251 | 4.8 | 8.0 | 0.00 | 0.00 | 0.00 | 88 | 1007.3 |
| 20260506211653 | 26 | 258 | 3.2 | 6.4 | 0.00 | 0.00 | 0.00 | 87 | 1007.1 |
| 20260506211148 | 26 | 241 | 3.2 | 4.8 | 0.00 | 0.00 | 0.00 | 87 | 1007.2 |
| 20260506210641 | 26 | 284 | 3.2 | 4.8 | 0.00 | 0.00 | 0.00 | 87 | 1007.2 |
| 20260506210356 | 26 | 316 | 3.2 | 4.8 | 0.00 | 0.00 | 0.00 | 87 | 1007.3 |
| 20260506205628 | 26 | 359 | 3.2 | 4.8 | 0.00 | 0.00 | 0.00 | 87 | 1007.1 |
| 20260506205123 | 26 | 317 | 3.2 | 4.8 | 0.00 | 0.00 | 0.00 | 88 | 1007.1 |
| 20260506204621 | 26 | 301 | 3.2 | 6.4 | 0.00 | 0.00 | 0.00 | 87 | 1007.0 |
| 20260506204122 | 26 | 359 | 3.2 | 6.4 | 0.00 | 0.00 | 0.00 | 87 | 1007.0 |
| 20260506203621 | 26 | 297 | 3.2 | 4.8 | 0.00 | 0.00 | 0.00 | 87 | 1007.1 |
| 20260506203119 | 26 | 291 | 1.6 | 4.8 | 0.00 | 0.00 | 0.00 | 86 | 1007.0 |
| 20260506202619 | 26 | 281 | 1.6 | 4.8 | 0.00 | 0.00 | 0.00 | 86 | 1007.1 |
| 20260506202120 | 26 | 297 | 1.6 | 3.2 | 0.00 | 0.00 | 0.00 | 86 | 1007.1 |
| 20260506201620 | 26 | 310 | 1.6 | 4.8 | 0.00 | 0.00 | 0.00 | 87 | 1007.1 |
| 20260506201122 | 26 | 309 | 3.2 | 4.8 | 0.00 | 0.00 | 0.00 | 86 | 1007.1 |
| 20260506200842 | 26 | 241 | 1.6 | 4.8 | 0.00 | 0.00 | 0.00 | 87 | 1007.0 |
| 20260506200116 | 26 | 359 | 3.2 | 6.4 | 0.00 | 0.00 | 0.00 | 87 | 1007.0 |
| 20260506195617 | 26 | 241 | 3.2 | 6.4 | 0.00 | 0.00 | 0.00 | 87 | 1006.8 |
| 20260506195117 | 26 | 183 | 1.6 | 6.4 | 0.00 | 0.00 | 0.00 | 87 | 1006.8 |
| 20260506194617 | 26 | 228 | 3.2 | 6.4 | 0.00 | 0.00 | 0.00 | 88 | 1006.8 |
| 20260506194117 | 26 | 222 | 1.6 | 4.8 | 0.00 | 0.00 | 0.00 | 88 | 1006.8 |
| 20260506193622 | 26 | 205 | 1.6 | 8.0 | 0.00 | 0.00 | 0.00 | 88 | 1006.9 |
| 20260506193118 | 26 | 223 | 3.2 | 8.0 | 0.00 | 0.00 | 0.00 | 88 | 1006.9 |
| 20260506192619 | 25 | 206 | 3.2 | 6.4 | 0.00 | 0.03 | 0.00 | 87 | 1006.9 |
| 20260506192119 | 26 | 210 | 3.2 | 6.4 | 0.00 | 0.03 | 0.00 | 88 | 1006.9 |
| 20260506191719 | 26 | 212 | 4.8 | 6.4 | 0.00 | 0.03 | 0.00 | 89 | 1006.9 |
| 20260506190614 | 25 | 215 | 1.6 | 6.4 | 0.00 | 0.03 | 0.00 | 88 | 1006.8 |
| 20260506190115 | 25 | 226 | 1.6 | 4.8 | 0.00 | 0.03 | 0.00 | 88 | 1006.8 |
| 20260506185834 | 25 | 197 | 3.2 | 6.4 | 0.00 | 0.03 | 0.00 | 88 | 1006.8 |
| 20260506185116 | 25 | 193 | 3.2 | 6.4 | 0.00 | 0.03 | 0.00 | 88 | 1006.7 |
| 20260506184613 | 25 | 152 | 1.6 | 6.4 | 0.00 | 0.03 | 0.00 | 88 | 1006.8 |
| 20260506184113 | 25 | 188 | 1.6 | 6.4 | 0.00 | 0.03 | 0.00 | 88 | 1006.9 |
| 20260506183614 | 25 | 225 | 1.6 | 4.8 | 0.00 | 0.03 | 0.00 | 88 | 1006.9 |
| 20260506183113 | 25 | 226 | 1.6 | 6.4 | 0.00 | 0.03 | 0.00 | 87 | 1006.8 |
| 20260506182613 | 25 | 199 | 3.2 | 8.0 | 0.00 | 0.03 | 0.00 | 88 | 1006.9 |
| 20260506182113 | 25 | 218 | 3.2 | 8.0 | 0.00 | 0.03 | 0.00 | 88 | 1006.9 |
| 20260506181614 | 25 | 222 | 3.2 | 8.0 | 0.00 | 0.03 | 0.00 | 88 | 1006.9 |
| 20260506181113 | 25 | 250 | 1.6 | 8.0 | 0.00 | 0.03 | 0.00 | 88 | 1006.9 |
| 20260506180612 | 25 | 213 | 3.2 | 11.3 | 0.00 | 0.03 | 0.00 | 88 | 1007.0 |
| 20260506180107 | 25 | 253 | 4.8 | 11.3 | 0.00 | 0.03 | 0.00 | 88 | 1007.0 |
| 20260506180053 | 24 | 220 | 4.8 | 11.3 | 0.00 | 0.03 | 0.00 | 88 | 1007.1 |
| 20260506175055 | 24 | 239 | 4.8 | 9.7 | 0.00 | 0.05 | 0.00 | 88 | 1007.2 |
| 20260506174548 | 24 | 234 | 6.4 | 9.7 | 0.00 | 0.05 | 0.00 | 88 | 1007.1 |
| 20260506174044 | 24 | 247 | 4.8 | 9.7 | 0.00 | 0.05 | 0.00 | 88 | 1007.1 |
| 20260506173536 | 25 | 237 | 4.8 | 9.7 | 0.00 | 0.10 | 0.00 | 87 | 1007.2 |
| 20260506173031 | 25 | 220 | 3.2 | 8.0 | 0.00 | 0.10 | 0.00 | 86 | 1007.3 |
| 20260506172524 | 25 | 239 | 3.2 | 9.7 | 0.00 | 0.10 | 0.00 | 86 | 1007.3 |
| 20260506172235 | 25 | 203 | 3.2 | 8.0 | 0.00 | 0.10 | 0.00 | 87 | 1007.4 |
| 20260506171512 | 24 | 193 | 3.2 | 8.0 | 0.00 | 0.10 | 0.00 | 88 | 1007.5 |
| 20260506171006 | 24 | 210 | 4.8 | 8.0 | 0.00 | 0.10 | 0.00 | 88 | 1007.5 |
| 20260506170500 | 24 | 229 | 6.4 | 9.7 | 0.00 | 0.10 | 0.00 | 88 | 1007.5 |
| 20260506165955 | 25 | 231 | 4.8 | 9.7 | 0.00 | 0.10 | 0.00 | 87 | 1007.5 |
| 20260506165451 | 25 | 235 | 3.2 | 8.0 | 0.00 | 0.10 | 0.00 | 87 | 1007.6 |
| 20260506164942 | 25 | 237 | 1.6 | 6.4 | 0.00 | 0.10 | 0.00 | 86 | 1007.6 |
| 20260506164437 | 25 | 223 | 3.2 | 9.7 | 0.00 | 0.10 | 0.00 | 86 | 1007.6 |
| 20260506164150 | 25 | 233 | 3.2 | 9.7 | 0.00 | 0.10 | 0.00 | 87 | 1007.7 |
| 20260506163424 | 25 | 214 | 3.2 | 9.7 | 0.00 | 0.10 | 0.00 | 87 | 1007.7 |
| 20260506162919 | 25 | 226 | 3.2 | 9.7 | 0.00 | 0.10 | 0.00 | 87 | 1007.9 |
| 20260506162412 | 25 | 242 | 3.2 | 11.3 | 0.00 | 0.10 | 0.00 | 87 | 1007.9 |